Temp
27 26 26 25 25 25 26 25 26 26 25 25 26 26 25 25 25 24 24 24 22 22 22 21 21 20 22 23 22 22 22 21 22 24 22 20 17 17 17 16 16 16 17
27 26 26 25 26 26 25 26 25 25 25 25 25 25 25 25 25 25 24 25 23 23 22 21 21 21 19 20 21 21 22 21 20 21 21 20 18 17 16 15 16 17 17
27 26 26 26 26 26 26 26 26 26 25 26 25 25 25 25 25 25 25 25 25 24 23 22 22 21 20 21 20 21 21 19 18 19 20 20 18 17 17 17 16 16 16
27 27 27 27 27 27 26 26 26 25 25 26 26 25 25 25 25 25 25 25 25 25 24 23 22 21 21 20 20 19 19 19 19 17 19 19 19 18 16 17 18 19 19
27 27 27 27 26 27 27 26 26 25 25 25 25 25 25 25 25 25 25 25 25 25 24 23 22 22 21 21 21 21 20 17 19 20 20 20 20 19 19 19 18 18 18
28 27 27 26 26 26 26 26 25 25 25 25 25 25 25 26 27 26 25 26 26 25 25 24 23 22 20 21 21 21 19 18 18 21 20 19 18 18 19 18 18 18 19
27 27 26 26 26 26 26 26 25 25 25 24 24 25 25 25 26 25 25 24 25 26 25 25 25 25 22 21 19 20 18 18 18 18 17 17 17 17 15 15 16 16 16
27 27 26 26 26 26 26 25 25 25 25 25 25 25 25 25 25 25 25 24 24 24 25 25 25 25 24 21 20 18 16 16 16 16 15 16 15 15 14 15 15 14 14
27 27 27 26 26 26 26 25 25 26 26 25 25 25 25 25 25 24 25 23 24 24 24 24 24 24 24 22 20 20 18 17 16 15 14 15 16 14 14 14 15 17 18
27 26 26 26 26 26 26 25 25 25 26 26 26 25 25 25 24 24 25 24 26 26 26 25 24 23 23 22 20 19 18 17 16 15 15 15 16 15 15 14 14 14 16
27 27 26 26 25 25 25 25 25 25 26 26 26 26 25 25 24 24 24 24 26 28 28 28 28 26 23 21 20 19 18 17 16 15 14 14 15 15 15 15 14 13 15
27 26 26 25 25 26 25 25 25 25 25 25 26 26 27 25 24 24 24 24 25 26 28 29 28 26 24 23 20 17 16 15 16 15 14 16 16 16 18 16 14 13 14
26 26 26 25 25 26 25 25 25 25 26 27 27 27 28 28 27 25 24 23 25 23 25 26 25 24 22 21 20 17 15 14 15 13 13 15 16 17 16 15 14 14 13
25 25 25 25 25 25 26 26 26 27 27 27 29 29 30 30 30 29 24 23 23 22 22 21 20 19 20 19 18 15 13 14 14 13 14 15 16 16 15 15 14 15 16
25 26 25 26 25 26 25 27 28 28 29 29 29 30 30 31 31 30 29 27 27 26 23 19 16 16 17 17 15 12 12 12 13 13 14 15 15 16 16 14 14 14 16
26 27 27 27 28 27 27 26 26 27 27 27 28 28 31 30 29 28 27 27 25 25 23 24 18 17 17 17 16 13 13 12 12 12 14 13 15 17 16 14 14 15 16
25 28 28 27 28 29 28 29 29 28 26 25 25 26 26 27 27 26 25 24 23 22 21 24 21 19 19 18 15 15 14 13 12 12 13 14 15 17 16 15 15 16 16
24 25 27 29 28 29 29 29 29 30 30 28 25 24 24 24 24 23 23 22 19 19 20 22 22 19 18 16 16 14 12 12 11 11 13 13 15 16 16 14 16 17 16
17 18 24 27 28 29 29 30 30 30 30 31 30 26 25 23 22 22 22 20 24 24 23 22 22 20 17 16 15 13 12 12 11 11 12 13 15 16 16 16 16 15 14
16 16 17 18 22 26 28 29 30 30 30 30 30 30 22 23 22 21 19 18 21 24 25 22 21 18 16 15 15 13 13 12 11 11 12 13 16 17 16 16 17 16 16
16 17 16 15 16 17 18 21 22 26 27 29 29 29 27 27 29 28 25 22 22 23 23 21 19 17 15 14 14 14 13 12 12 11 12 14 17 16 16 16 16 16 16
16 16 15 14 15 15 15 16 18 19 22 26 30 25 26 24 27 28 28 26 23 22 21 20 19 16 17 16 15 14 13 12 12 12 14 18 16 16 15 17 16 16 16
13 13 13 14 13 14 15 15 15 14 16 18 19 21 24 26 26 26 25 24 23 20 18 17 16 15 15 15 14 14 13 13 12 14 17 17 16 15 17 17 17 16 16
12 10 11 11 10 14 13 13 12 12 12 13 14 15 16 18 19 19 19 18 18 16 15 15 15 15 14 14 13 13 12 13 14 16 18 16 15 16 16 17 17 16 16
13 11 10 10 12 10 11 11 11 11 10 9 10 10 13 13 15 16 16 15 15 14 15 17 16 15 15 14 13 13 14 15 16 17 17 15 16 16 16 17 16 16 16
11 11 11 12 13 12 13 12 11 9 9 8 8 8 9 9 11 12 13 14 13 14 15 17 16 15 15 14 14 14 14 15 17 16 16 17 17 16 17 17 16 16 15
Height
795 801 806 810 814 818 821 825 829 833 835 837 839 840 841 843 843 845 846 846 846 845 845 845 845 845 844 844 843 842 841 841 841 837 837 835 832 829 828 828 825 824 823
787 794 800 805 809 812 815 819 823 827 830 833 835 836 838 839 840 841 842 842 843 843 842 841 841 841 840 838 838 839 837 837 837 833 833 832 829 827 827 825 824 823 821
782 788 793 798 803 806 809 813 817 821 824 827 830 831 833 835 836 836 838 838 838 838 838 837 837 836 835 835 834 834 834 833 830 831 828 823 823 824 823 821 821 819 816
775 780 786 791 795 800 804 807 811 814 818 821 823 826 827 829 831 831 832 833 833 833 833 832 832 830 829 829 829 826 823 823 827 827 821 825 827 823 820 819 817 815 814
766 772 776 783 789 794 797 801 804 808 811 814 817 819 821 823 824 825 825 826 826 826 826 826 825 823 822 818 815 816 821 824 824 823 822 822 822 822 821 821 819 816 814
756 762 768 774 780 785 790 793 797 801 804 807 809 812 813 814 816 817 819 820 819 819 819 817 817 815 811 808 810 814 816 814 817 816 817 818 820 823 822 816 818 816 812
749 754 760 765 770 775 781 786 789 793 797 800 802 804 805 806 808 809 811 812 813 812 811 810 807 804 803 805 807 804 808 809 811 815 817 819 817 818 819 816 813 814 810
741 744 750 756 761 767 772 777 781 786 789 792 794 796 797 797 799 801 801 803 804 803 802 800 797 796 798 800 801 801 801 802 805 809 811 813 813 813 815 816 812 809 809
727 733 738 743 750 758 763 767 772 778 781 784 787 788 789 789 790 792 794 795 794 793 792 790 788 788 791 791 794 793 796 797 800 802 805 805 806 809 809 810 809 804 799
717 724 731 737 743 748 753 759 764 769 772 776 778 780 780 781 782 783 785 787 786 784 783 780 779 781 783 784 785 789 790 791 793 794 797 799 800 801 802 802 803 803 800
714 719 724 730 735 740 745 750 755 761 764 766 769 771 772 773 774 774 776 777 777 775 774 772 771 769 773 776 779 782 776 781 783 787 790 793 795 796 796 794 795 794 796
710 715 718 723 727 733 738 743 748 752 755 758 760 762 763 765 766 766 767 768 767 767 765 764 764 763 765 768 770 773 776 777 778 781 785 788 788 789 788 789 791 792 791
706 710 714 718 722 726 730 735 741 744 747 748 749 751 752 755 756 757 759 759 758 758 761 760 757 759 760 761 764 765 768 771 774 776 779 783 780 784 784 786 787 787 785
701 706 710 713 716 720 723 726 730 732 736 738 738 739 741 743 745 747 749 752 751 751 751 752 753 753 754 756 757 759 762 765 767 770 775 777 780 782 783 784 784 782 780
698 702 704 706 709 713 715 717 719 721 723 726 729 731 732 733 735 738 741 745 746 745 747 747 746 747 750 751 751 753 756 758 760 765 771 774 775 778 778 777 775 776 775
693 695 695 698 702 707 708 711 713 714 716 719 720 722 723 727 727 731 735 738 741 741 741 740 742 744 745 745 746 747 749 751 754 758 765 770 773 772 771 772 775 773 773
690 687 689 693 696 698 701 703 704 707 711 713 714 716 718 720 722 725 728 732 733 735 735 733 735 736 737 737 738 740 742 745 749 754 759 763 766 767 768 771 772 769 769
687 687 687 688 691 692 695 697 699 699 699 703 704 707 709 712 715 717 720 725 725 726 727 726 727 728 729 729 730 734 737 741 744 750 755 758 762 764 765 768 766 765 765
692 691 687 686 687 690 691 692 694 693 694 694 695 699 701 704 707 709 711 715 715 715 717 717 718 720 721 721 724 727 731 734 738 744 747 752 756 758 760 763 763 762 764
696 693 692 691 689 689 691 690 689 690 691 692 692 693 695 699 703 704 703 704 706 706 706 709 711 712 713 714 717 720 725 730 734 737 741 747 751 754 757 759 759 760 760
705 697 698 698 698 698 699 698 696 693 692 689 689 689 692 697 695 696 701 701 700 700 702 703 705 705 706 709 712 715 719 722 728 733 737 743 746 751 754 756 756 758 759
708 704 702 705 703 704 705 701 701 702 694 690 684 687 691 695 694 692 692 695 697 697 697 699 700 700 700 703 705 709 711 716 722 728 734 737 743 748 751 753 754 757 757
718 715 712 712 714 714 713 712 709 713 699 697 699 694 693 693 693 694 692 693 694 695 695 695 696 697 697 698 701 702 704 709 717 724 729 733 739 744 747 750 753 755 756
724 726 717 717 725 718 718 722 723 717 710 707 704 704 701 699 697 697 695 693 693 691 691 692 693 695 695 697 699 702 703 708 715 722 726 731 735 738 743 747 750 752 754
722 719 718 720 733 728 722 725 722 731 727 718 712 709 708 703 702 700 698 694 691 690 690 692 691 691 692 691 695 698 702 707 713 718 724 728 731 735 741 743 747 751 752
734 733 735 731 731 731 735 737 741 740 722 711 714 714 711 708 707 703 700 694 690 690 690 691 689 690 689 688 691 695 701 706 710 716 722 725 728 733 738 741 746 749 752
Wind_Speed
31 29 27 27 27 25 23 21 20 17 15 14 13 11 11 11 10 9 9 8 9 8 8 9 8 7 7 7 8 8 8 9 11 11 8 9 9 10 11 11 13 12 11
33 30 29 26 26 26 26 24 22 21 19 18 16 16 15 13 12 12 12 11 13 12 12 12 11 10 11 11 10 10 11 9 10 11 11 11 10 10 10 12 12 11 12
33 32 31 29 28 28 26 25 24 23 22 21 19 19 18 17 16 14 14 14 15 16 15 15 14 14 14 13 12 12 11 10 13 12 10 15 10 10 9 11 11 11 13
34 35 33 32 30 30 28 26 25 24 23 23 22 21 20 19 19 18 17 17 18 18 18 18 17 18 18 15 16 17 16 15 12 11 16 12 14 8 8 11 10 10 13
35 35 34 33 31 30 29 28 26 25 25 24 24 23 23 21 21 21 20 19 20 20 20 21 21 22 22 23 22 20 15 13 13 13 13 11 12 12 10 10 12 14 15
36 36 34 32 33 32 30 28 27 27 25 24 26 26 26 25 24 26 25 21 21 22 23 23 23 26 31 33 30 26 16 19 16 15 13 10 10 12 11 9 12 15 13
36 35 34 34 34 33 32 30 29 28 27 27 26 26 28 27 26 29 30 28 24 25 25 25 27 28 29 27 25 33 28 27 22 14 13 12 9 9 11 8 10 12 16
35 37 36 35 34 33 32 32 31 30 29 28 27 27 26 27 28 30 30 29 26 27 28 29 33 30 26 24 25 20 22 22 25 21 15 13 11 9 9 10 12 13 21
38 38 38 38 36 34 32 32 32 30 29 29 28 28 27 27 27 29 28 24 26 28 29 32 35 31 26 30 29 25 20 20 17 19 18 16 15 15 12 10 12 15 18
38 37 35 35 34 33 33 31 30 30 30 30 29 29 29 28 27 30 29 25 25 26 27 31 34 33 29 31 35 25 22 22 22 16 15 17 16 14 13 15 14 16 20
33 33 33 33 32 32 31 31 29 29 28 28 29 28 28 28 28 31 32 29 27 26 26 27 25 26 25 31 33 28 31 22 23 19 14 12 11 11 13 12 15 14 19
28 29 30 31 31 30 28 28 28 27 26 27 26 27 30 28 30 31 33 36 32 30 28 25 24 22 22 22 25 33 26 26 21 19 13 16 13 15 13 15 14 15 16
24 26 27 28 29 27 26 26 25 25 27 27 28 28 29 29 27 29 34 35 36 42 27 24 25 24 16 17 19 26 32 27 22 20 19 18 16 13 11 10 12 15 14
22 24 25 25 25 24 26 25 26 27 26 27 27 27 27 26 27 26 22 27 33 38 38 35 28 21 22 20 17 22 29 27 25 25 20 17 14 12 10 9 8 12 14
20 21 21 22 22 23 25 26 27 29 30 29 28 28 27 26 27 26 23 19 17 18 12 13 10 10 13 15 16 18 23 23 28 22 21 18 16 14 12 12 11 11 12
16 17 17 16 17 20 21 22 29 28 27 33 32 23 25 26 20 13 18 24 20 20 13 18 11 11 14 16 17 18 23 24 24 26 25 19 18 15 14 13 9 11 11
14 11 12 15 16 17 19 20 19 23 34 32 29 36 36 32 23 18 17 19 21 21 18 20 17 15 16 16 17 19 23 23 27 26 27 24 18 18 14 10 9 9 9
7 9 10 11 14 16 17 17 19 19 18 19 27 39 37 37 34 33 31 25 18 19 20 22 20 18 18 19 21 19 22 27 27 28 26 21 19 16 12 11 11 8 8
20 17 5 11 11 10 13 15 17 17 18 16 12 9 17 28 31 31 28 24 24 21 20 22 21 18 18 20 18 20 22 27 28 31 29 24 19 17 13 10 9 5 5
22 30 26 19 13 4 9 11 12 13 14 14 13 13 10 9 9 11 17 18 19 20 18 16 15 15 15 18 20 20 25 25 26 30 27 24 20 16 13 10 9 8 7
18 23 26 23 24 21 19 16 14 14 12 13 12 8 5 7 10 10 11 13 14 14 14 14 13 13 15 19 19 19 23 24 28 27 30 23 18 16 11 10 8 8 4
22 22 24 24 23 26 24 24 22 19 16 17 9 7 5 7 11 10 9 9 10 10 10 11 12 14 16 18 19 23 24 27 30 29 27 21 17 15 13 11 8 7 5
23 23 23 23 22 21 23 22 20 21 20 18 19 19 12 6 8 9 8 8 7 7 7 9 11 12 14 16 18 21 23 29 25 28 24 20 19 15 13 11 10 7 6
21 21 24 24 24 21 22 22 21 22 23 20 22 21 18 15 13 13 10 5 4 6 7 8 10 11 11 12 13 16 17 19 23 25 22 22 20 18 15 12 10 7 6
23 26 25 24 19 21 21 19 23 20 17 18 20 22 19 18 14 12 10 8 6 6 6 8 9 10 13 14 15 16 16 21 25 25 24 23 19 19 15 13 11 9 6
19 19 17 17 17 18 15 12 9 14 19 24 24 25 26 24 21 19 14 11 9 7 7 7 7 9 11 13 16 18 21 24 27 28 24 21 21 20 16 14 13 9 8
Wind_Direction
205 205 206 208 208 210 211 212 213 217 217 215 217 217 212 215 224 231 243 245 236 239 237 237 237 233 240 246 249 250 254 256 274 296 297 289 286 274 278 286 291 290 299
201 203 206 208 208 212 213 214 215 218 222 224 224 226 223 223 227 232 239 245 242 241 242 237 235 231 235 241 247 251 254 250 257 271 288 288 268 275 281 283 294 287 286
203 205 209 211 211 214 215 214 215 217 220 225 227 228 229 229 233 237 241 248 248 247 245 241 239 232 237 242 240 249 250 244 238 258 267 268 260 277 282 283 283 281 282
206 208 211 213 214 217 218 216 216 216 220 224 227 231 232 233 236 240 244 250 251 251 250 247 243 238 237 238 240 240 233 231 236 243 255 272 282 276 269 286 286 285 296
205 209 211 211 214 217 219 218 219 219 222 225 228 231 236 235 236 241 242 247 249 253 253 253 250 244 238 234 233 237 229 228 241 252 258 265 272 273 294 312 299 305 307
205 208 210 208 209 213 217 216 217 221 223 224 228 231 235 237 239 241 239 249 252 255 256 256 255 253 247 246 248 241 230 220 231 243 255 263 287 288 291 294 307 312 314
206 209 209 208 209 211 215 218 219 221 224 226 229 230 234 238 238 240 245 245 252 257 257 257 257 253 248 247 249 243 237 241 238 241 253 264 278 278 277 280 290 292 289
212 209 208 209 211 210 212 216 218 221 223 227 231 233 234 238 237 238 244 246 249 253 254 254 254 256 251 243 241 236 232 232 236 234 235 249 264 257 265 277 279 288 288
209 211 210 207 208 210 212 214 217 221 224 228 232 233 234 237 238 238 243 240 246 251 253 252 252 256 254 247 238 238 227 225 235 231 227 236 249 250 244 264 277 285 290
209 210 210 209 209 209 210 213 217 221 226 230 234 234 236 239 238 239 239 237 245 251 256 258 260 254 252 249 242 235 224 225 209 224 234 239 245 244 240 238 242 275 288
211 209 208 209 209 210 211 211 215 222 229 228 233 235 236 237 239 240 239 234 242 251 256 262 265 262 254 256 248 232 224 219 218 213 212 225 218 219 227 233 239 242 272
212 212 208 207 207 211 213 216 218 219 223 227 231 235 241 241 242 243 244 240 239 245 255 263 270 272 266 260 260 239 233 219 209 199 202 215 208 219 224 223 237 257 266
212 214 212 208 208 211 205 213 216 217 227 227 230 234 241 244 242 246 246 246 250 245 251 261 264 270 267 254 260 247 223 213 208 192 201 218 210 226 213 225 239 284 269
211 212 211 210 210 212 215 214 218 219 221 230 233 234 240 240 242 241 234 245 252 255 258 261 262 259 258 256 249 236 221 214 207 205 205 210 213 217 222 240 240 276 279
209 211 210 212 209 215 217 218 220 225 224 226 232 237 240 241 242 241 235 236 242 248 239 235 233 224 228 230 227 218 208 211 206 199 201 200 206 219 223 219 238 262 273
210 208 205 211 217 219 222 226 232 231 226 231 236 238 239 240 250 245 237 239 250 256 245 244 226 220 227 229 224 215 205 204 197 196 199 209 219 222 220 220 235 257 276
230 218 205 210 220 222 220 232 232 230 237 241 241 240 240 241 246 247 249 251 253 252 247 252 243 224 236 228 225 216 203 200 198 199 202 204 215 227 215 220 257 257 273
230 232 224 221 214 230 230 232 238 238 230 231 243 242 245 247 248 250 253 252 246 246 241 248 249 236 237 233 233 213 207 200 204 199 199 202 217 221 210 213 249 253 272
38 21 322 224 232 236 241 237 240 239 244 245 228 214 236 241 245 246 247 236 241 240 242 243 242 237 236 241 230 219 207 205 203 199 201 201 211 215 208 228 237 244 289
29 34 34 30 29 299 248 255 256 244 244 240 238 239 170 209 222 228 227 226 232 238 240 239 239 232 230 233 225 212 203 208 209 201 196 197 211 207 203 217 224 243 236
26 41 33 31 27 19 6 1 355 302 275 243 230 232 175 230 246 232 229 226 228 233 235 233 230 223 223 224 217 210 211 209 207 196 194 197 201 196 196 211 212 234 248
30 38 39 30 27 16 9 7 2 354 351 339 308 117 201 246 276 271 256 247 249 241 232 225 224 218 227 224 218 213 207 204 202 195 190 197 187 184 188 199 205 214 223
29 38 39 34 28 28 17 10 12 353 7 10 1 0 350 287 284 285 285 271 255 247 230 219 215 219 219 218 216 216 201 201 195 189 192 181 176 180 188 189 203 205 223
36 31 40 39 18 28 28 12 3 6 7 12 10 5 5 356 346 331 326 315 267 256 232 226 220 218 215 211 210 209 201 192 184 187 186 178 174 175 181 184 197 192 199
28 25 23 28 15 12 20 18 11 0 2 12 10 6 360 2 349 339 327 321 304 275 246 231 226 225 219 209 204 203 192 195 180 185 180 175 174 172 178 178 182 189 199
37 30 20 20 15 5 5 8 0 350 10 15 7 4 5 8 360 354 346 343 334 304 277 264 261 237 218 204 205 199 193 190 181 178 174 174 170 172 175 178 179 183 182